RH
85 57 56 75 100 100 100 100 100 93 91 97 100 100 100 88 55 48 42 41 42 44 50 52 66 64 86 100 100 78 84 84 79 76 85 78 67 62 47 42 42 52 60 69
47 90 69 46 41 65 74 80 82 100 100 100 100 96 69 57 56 50 43 52 54 58 58 66 83 94 100 100 96 88 87 90 95 94 89 78 77 62 60 54 60 84 84 86
34 39 49 53 66 65 81 100 100 100 100 100 100 100 76 55 52 69 57 59 73 70 82 84 79 93 100 100 100 99 97 100 97 91 93 85 88 79 62 69 84 100 100 94
50 42 44 42 38 46 68 69 100 100 100 100 96 97 68 88 91 83 92 83 68 82 72 86 95 94 97 100 100 100 93 100 100 91 72 57 52 51 63 95 100 100 73 62
48 60 64 61 54 44 40 44 54 62 73 84 76 68 79 100 72 73 100 100 100 89 88 87 100 100 100 100 100 100 100 100 100 81 64 56 54 71 98 100 98 71 79 66
50 55 65 81 82 67 60 45 42 41 59 51 60 73 54 74 100 72 99 100 100 98 98 100 100 100 100 100 100 100 100 100 79 64 57 58 79 100 99 86 82 74 45 38
66 71 74 79 96 95 88 66 59 45 37 45 70 68 57 65 60 51 70 100 100 100 100 100 100 100 100 100 100 100 100 85 75 53 73 97 100 93 94 85 70 45 43 42
65 30 52 64 46 93 88 95 73 72 66 62 70 44 67 78 91 100 100 100 100 100 100 100 100 100 100 100 100 100 86 87 69 90 92 100 98 100 86 54 45 49 44 50
59 60 73 66 77 78 99 98 100 100 77 71 72 92 100 100 100 100 100 100 100 100 100 100 100 100 100 100 96 91 96 94 99 100 100 100 100 90 78 49 68 49 47 50
100 86 83 91 80 78 94 100 100 100 100 100 100 100 100 100 100 100 100 100 100 100 100 99 95 100 99 93 95 93 88 96 100 100 100 96 93 69 60 52 48 46 55 64
100 100 100 100 97 96 81 100 100 100 97 100 100 99 100 100 100 100 100 99 100 94 84 82 81 79 93 94 99 100 100 100 100 95 84 69 56 63 69 54 50 58 70 60
100 100 100 100 100 100 100 100 100 100 100 100 100 74 100 100 93 90 100 100 100 100 98 100 94 100 100 100 100 100 100 100 92 66 50 64 57 64 55 50 56 62 70 68
100 100 100 100 100 100 100 100 100 100 100 100 100 93 100 100 100 100 100 100 100 100 100 100 100 100 100 100 100 100 88 70 60 60 74 76 82 58 58 74 65 73 72 60
100 100 100 100 94 97 100 100 100 100 100 100 100 100 100 100 100 100 100 100 100 100 100 100 100 100 100 99 84 89 82 71 78 100 83 84 65 81 67 59 62 79 64 51
100 100 100 100 100 98 100 100 97 100 100 100 100 100 100 100 100 100 100 98 100 100 100 100 100 100 98 91 89 90 99 100 100 92 75 93 65 76 73 67 71 76 63 48
100 100 100 100 100 100 94 100 100 100 100 88 64 75 89 100 100 100 100 100 100 96 93 77 74 83 94 100 94 83 95 87 93 89 82 78 79 73 74 71 73 64 51 42
100 100 100 100 99 100 91 74 99 78 70 95 96 91 76 73 95 90 100 100 94 85 88 100 95 100 98 100 97 94 89 94 85 96 95 83 74 77 82 69 69 59 46 22
100 100 100 100 100 100 98 83 83 78 77 92 95 88 93 88 84 76 85 100 97 100 100 96 91 74 73 76 89 79 89 100 80 87 82 76 63 78 77 64 60 45 24 25
99 100 100 100 100 100 100 100 100 100 87 78 78 82 89 84 59 60 74 90 82 87 89 80 69 93 99 100 100 98 88 92 86 88 88 88 93 79 58 60 43 24 29 28
48 62 69 99 100 99 100 100 100 100 100 100 100 100 100 100 100 100 96 100 100 100 100 100 100 100 100 92 98 96 90 90 90 92 79 92 74 64 60 38 27 34 32 31
23 21 28 49 62 52 58 75 94 94 92 100 100 100 100 100 100 100 100 100 100 100 100 100 98 100 96 96 95 83 78 88 78 84 90 70 66 57 34 30 40 34 35 39
15 14 19 27 26 18 21 23 31 47 55 75 88 94 100 100 92 82 77 90 93 86 92 93 84 87 89 85 69 74 67 76 90 80 62 65 53 30 33 41 36 38 41 37
12 14 15 15 14 13 16 18 21 21 23 26 30 33 35 45 62 65 67 50 42 45 49 44 51 54 57 56 60 42 75 72 57 57 64 46 30 40 43 38 44 45 39 30
9 11 11 12 12 13 15 16 14 16 19 15 17 20 21 22 26 29 31 37 33 29 32 36 38 46 42 30 45 70 59 61 63 57 35 36 50 45 44 48 45 39 31 24
8 8 10 12 14 14 13 13 12 16 15 14 15 16 17 18 19 20 20 23 25 29 39 53 52 39 31 46 58 67 66 59 42 39 53 54 48 49 50 45 38 29 23 18
8 8 8 10 10 9 10 10 12 14 17 15 15 16 16 16 17 18 21 23 33 42 41 48 40 36 50 65 74 60 52 45 57 56 55 55 55 49 42 33 25 21 17 16
Wind_Speed
41 44 45 37 33 39 37 38 43 44 46 42 43 39 43 45 48 50 50 53 54 54 50 52 53 55 57 57 56 60 62 64 67 69 72 74 76 77 81 83 85 87 87 90
37 42 41 45 45 43 42 43 44 52 52 44 48 54 54 50 50 55 51 55 55 55 55 58 58 60 61 62 61 63 65 68 71 72 75 77 79 82 85 88 90 88 91 97
34 39 39 39 45 48 47 46 50 51 57 51 50 59 60 55 50 60 56 57 56 58 61 62 63 65 68 66 66 67 70 73 75 78 81 82 83 86 91 93 93 94 98 106
47 50 43 43 44 49 48 53 50 57 56 55 58 57 57 61 55 57 64 65 62 62 62 65 68 69 70 72 72 74 77 79 80 84 87 89 91 94 95 95 95 102 111 116
55 56 56 52 52 48 54 63 58 62 64 64 62 60 60 67 65 56 69 68 70 72 69 72 75 75 76 77 76 80 81 82 86 91 93 95 98 98 97 100 107 115 120 124
64 69 67 61 61 60 61 62 69 71 73 68 68 71 57 69 75 64 66 71 76 78 77 80 80 80 79 82 84 84 84 88 95 97 100 102 99 98 103 111 115 121 125 126
76 72 76 70 70 72 73 67 73 70 74 68 78 80 69 78 80 76 70 74 78 80 82 84 84 84 84 86 86 87 91 97 100 103 102 101 103 108 112 118 123 128 128 129
84 79 81 83 77 84 83 81 74 79 78 77 80 77 76 83 81 83 81 77 77 82 83 86 87 87 88 91 92 95 99 100 104 104 105 106 111 115 119 124 126 130 131 126
95 87 92 88 87 84 85 85 88 90 81 86 79 81 85 85 87 85 88 88 86 86 89 93 94 93 92 97 98 100 101 102 104 105 108 113 118 123 126 130 131 132 128 126
93 99 99 96 92 90 92 94 95 95 93 94 85 90 87 94 91 88 90 92 91 93 94 95 97 95 98 101 102 103 105 105 107 113 117 122 126 129 130 132 134 131 126 121
102 110 102 109 98 101 98 101 102 102 100 98 99 93 91 91 98 97 98 98 98 99 99 99 101 100 103 104 105 107 107 111 114 120 124 128 131 132 132 135 134 129 119 117
114 115 109 109 113 107 107 105 106 109 104 106 108 95 98 99 105 106 103 102 100 102 102 101 100 101 105 106 107 113 117 119 122 127 129 130 132 131 133 134 131 120 117 114
119 127 121 111 114 113 112 114 114 113 115 114 112 99 101 102 105 108 108 106 106 104 104 105 103 103 109 111 115 118 120 122 125 127 132 132 132 135 134 128 122 113 113 110
128 128 130 125 122 120 120 119 121 121 123 115 116 110 100 105 109 110 109 110 110 110 110 109 110 110 117 121 122 123 126 127 127 128 130 131 133 132 131 126 118 117 113 112
129 131 130 130 132 127 125 126 125 122 123 123 113 117 102 113 116 117 115 112 111 114 115 116 118 118 121 124 125 124 126 129 130 132 135 133 133 128 126 121 114 111 112 108
132 130 132 130 132 133 126 129 126 125 123 125 123 118 108 113 117 120 118 118 120 120 120 122 120 123 124 122 126 127 128 130 130 132 136 135 127 127 119 113 111 109 106 103
135 132 132 135 129 133 136 126 128 126 126 124 125 121 113 116 116 119 124 117 120 121 123 125 124 125 126 129 129 129 130 132 135 135 129 131 125 115 112 112 106 104 101 94
139 137 140 141 137 141 134 130 128 127 128 127 127 125 120 121 120 123 119 124 123 126 127 128 128 128 130 133 132 134 136 132 129 126 121 120 116 111 111 106 102 98 91 85
142 146 148 143 145 144 143 135 136 139 135 129 129 128 126 125 124 123 124 125 127 128 130 133 131 131 129 131 134 129 129 130 121 116 115 109 109 108 104 101 96 87 82 79
136 140 145 154 155 155 147 139 140 138 138 141 140 138 135 133 130 132 133 131 131 130 128 129 131 134 136 136 133 125 122 118 117 108 105 107 106 101 99 92 83 79 78 76
121 124 126 139 149 147 141 139 143 146 138 143 144 143 144 143 139 139 140 140 136 135 136 139 138 133 133 119 122 118 112 105 101 99 101 99 97 95 88 79 76 77 76 76
106 114 115 120 132 122 118 123 125 130 134 138 141 147 147 142 140 138 140 141 140 141 128 125 124 121 118 118 109 103 99 94 94 95 93 91 90 83 77 75 76 75 75 76
92 95 99 106 108 103 108 109 113 112 116 115 118 117 118 121 128 129 130 127 123 117 116 109 104 100 99 97 94 90 85 87 87 85 85 84 78 74 73 74 74 74 76 76
78 84 85 91 82 88 91 95 97 94 102 101 99 99 103 102 102 104 104 103 104 95 91 90 90 90 88 85 79 78 79 80 81 80 77 72 71 72 73 73 74 76 76 75
67 72 71 73 75 79 79 80 78 78 85 81 80 79 80 81 82 83 83 83 80 80 81 81 82 83 81 73 71 73 74 74 74 69 68 69 72 72 72 74 76 76 74 73
58 60 60 64 67 66 66 62 61 63 70 71 68 67 69 69 69 67 69 69 70 73 74 75 76 75 69 68 68 68 68 65 64 66 68 70 71 73 74 74 74 74 73 72
Wind_Direction
255 253 252 256 263 263 259 259 256 263 266 267 270 270 280 273 283 283 286 286 286 288 296 298 299 299 300 305 303 303 304 305 308 311 310 310 312 311 311 312 312 312 311 311
270 261 254 256 262 263 263 264 268 269 268 267 270 280 280 282 285 284 287 286 288 291 293 295 297 300 303 305 303 301 303 304 306 308 308 310 311 311 312 312 311 310 309 307
264 268 265 268 269 265 265 270 272 272 272 271 277 279 285 286 287 284 289 288 293 295 295 298 298 299 301 300 301 302 303 306 307 308 310 311 311 311 311 311 310 307 305 305
265 265 266 271 281 273 265 265 268 267 268 273 271 277 284 286 285 288 288 288 295 296 297 300 300 300 301 301 300 301 304 306 306 307 309 309 309 310 310 309 305 304 306 306
264 262 264 266 266 270 274 276 272 270 271 272 279 278 281 283 285 284 285 293 291 293 296 298 298 298 298 298 299 302 304 303 304 305 307 307 308 309 308 306 304 306 306 308
263 262 262 262 263 265 273 275 271 276 274 276 281 279 285 283 284 289 290 291 290 293 296 294 295 296 297 297 300 302 300 301 303 305 305 306 306 305 304 305 306 306 307 308
261 265 265 266 269 270 267 271 270 276 282 281 275 277 281 281 285 286 285 287 290 293 294 294 294 293 295 298 299 298 299 302 304 304 305 304 304 304 305 306 306 307 308 309
257 264 268 268 268 268 271 269 275 271 275 276 275 281 280 280 282 284 285 286 290 291 290 289 289 292 295 296 297 297 300 302 303 303 302 302 303 303 304 307 307 309 309 310
261 261 262 266 267 271 274 272 270 272 274 273 273 278 277 278 278 279 282 284 287 286 286 289 291 293 295 295 296 298 300 302 301 301 300 301 302 305 305 307 309 310 310 311
260 259 262 261 268 269 271 269 269 271 271 273 274 273 277 277 279 279 280 283 284 285 286 288 291 294 295 295 297 298 298 299 298 299 300 302 304 305 305 306 309 311 312 312
264 266 263 262 266 265 264 266 269 270 270 274 273 272 276 277 279 279 281 282 284 285 288 288 289 293 293 295 296 296 296 297 298 300 302 302 304 305 306 307 309 310 310 311
263 263 262 263 261 262 263 264 264 269 271 270 271 272 275 277 278 280 283 284 285 287 288 290 291 292 292 292 292 293 294 296 298 299 301 303 304 306 308 308 310 310 310 309
262 262 261 259 260 262 263 263 263 264 266 268 274 275 275 277 280 281 283 284 285 284 285 287 290 291 290 290 292 294 296 297 297 299 302 305 306 308 308 309 309 309 309 309
262 262 261 261 260 258 261 262 264 265 267 268 269 272 272 274 277 279 280 280 281 284 285 287 289 290 290 291 293 295 295 297 298 301 303 304 306 307 307 309 308 307 308 308
258 262 261 261 262 260 261 262 262 263 267 268 266 269 270 273 274 276 277 280 281 282 283 284 286 288 289 291 293 295 296 297 298 300 303 304 304 306 308 307 307 307 307 309
258 259 262 261 262 262 262 261 262 264 264 265 268 264 270 271 274 277 276 279 281 282 284 285 288 290 290 292 292 294 296 297 299 299 300 303 305 304 305 306 306 307 308 308
259 259 261 263 262 262 263 262 263 264 263 265 267 269 267 271 273 276 279 277 279 282 284 286 287 288 290 292 293 295 298 297 297 299 299 302 302 304 305 305 305 306 307 305
256 258 258 258 259 262 264 263 265 265 265 265 267 269 269 270 272 273 276 278 279 281 282 285 286 287 289 291 293 295 295 295 296 297 299 300 301 302 304 304 305 306 304 304
249 252 254 257 258 259 260 262 265 268 270 270 271 272 272 272 272 273 275 276 278 281 282 283 286 288 289 290 291 292 291 295 297 297 298 299 300 302 302 304 305 303 303 305
251 253 253 253 255 256 258 259 261 263 266 268 271 274 275 274 275 275 277 279 280 281 283 285 287 288 288 291 291 289 292 293 295 298 297 297 299 301 303 303 303 303 305 305
250 254 254 253 255 256 258 259 261 260 263 265 267 269 271 271 273 274 276 278 279 281 282 285 287 287 287 288 289 289 292 294 295 295 295 298 300 300 302 302 303 304 305 305
251 250 250 253 256 260 263 263 262 263 263 262 264 266 270 271 272 273 275 277 278 281 283 283 283 284 286 287 288 289 292 293 292 293 296 298 298 300 301 302 304 305 304 305
247 250 250 254 257 261 261 260 260 260 262 263 263 264 267 268 270 272 275 277 278 279 281 280 282 283 283 284 286 291 291 291 292 296 297 297 299 301 303 304 304 303 303 304
248 250 252 253 256 257 258 259 259 261 260 261 263 266 266 267 268 271 272 275 278 279 279 280 281 281 283 286 291 291 291 293 296 296 297 299 301 302 303 303 302 302 302 303
247 249 250 252 252 252 253 254 259 260 262 263 263 263 263 264 264 266 269 271 274 275 276 277 278 281 287 294 292 292 293 294 296 298 300 301 301 302 302 302 301 302 302 302
246 246 247 247 250 253 256 258 257 255 259 262 261 262 261 261 263 265 267 269 269 270 272 274 279 285 292 292 293 294 295 296 298 300 301 301 301 301 301 301 301 302 302 303